Weather observations for the past three days for
Chenault Airpark
Imperial (Metric)
Date Time (cdt) Wind (mph) Vis. (mi.) Weather Sky Cond. Temperature (ºF) Relative Humidity Wind Chill (°F) Heat Index (°F) Pressure Precipitation (in)
Air Dwpt 6 hour altimeter (in) sea level (mb) 1 hr 3 hr 6 hr
Max. Min.
13 10:45 W 6 10.00 Mostly Cloudy BKN025 87.8 75.2 66% 98 30.19 0.0
13 09:45 W 6 10.00 Mostly Cloudy BKN025 87.8 75.2 66% 98 30.19 0.0
13 08:45 Calm 10.00 Fair CLR 84.2 75.2 74% 92 30.19 0.0
13 07:45 Calm 10.00 Fair CLR 80.6 77 89% 87 30.17 0.0
13 06:50 Calm 10.00 Fog/Mist CLR 78.8 75.2 89% 82 30.15 0.0
13 05:35 Calm 3.00 Fog/Mist CLR 76.6 75.4 96% 77 30.13 0.0
13 05:15 Calm 3.50 Fog/Mist CLR 77.2 75.9 96% 78 30.13 0.0
13 04:55 Calm 3.50 Fog/Mist CLR 77 75.6 95% 78 30.12 0.0
13 04:35 Calm 5.00 Fog/Mist CLR 77.5 76.1 95% 79 30.11 0.0
13 04:15 Calm 5.00 Fog/Mist CLR 77.4 76.1 96% 79 30.11 0.0
13 03:55 Calm 2.00 Fog/Mist CLR 77.5 75.9 95% 79 30.11 0.0
13 03:35 Calm 7.00 Partly Cloudy SCT037 78.4 76.8 95% 82 30.11 0.0
13 03:15 Calm 7.00 Fog/Mist BKN035 BKN042 78.4 77 95% 82 30.11 0.0
13 02:55 Calm 7.00 Fog/Mist BKN033 BKN042 78.3 76.5 94% 81 30.11 0.0
13 02:35 Calm 7.00 Partly Cloudy SCT035 78.8 76.8 94% 83 30.12 0.0
13 02:15 Calm 10.00 Partly Cloudy SCT040 79.2 77.2 94% 84 30.12 0.0
13 01:55 Calm 7.00 Fair CLR 78.8 76.8 94% 83 30.12 0.0
13 01:35 NW 3 10.00 Fair CLR 79.5 76.8 92% 85 30.12 0.0
13 01:15 Calm 10.00 Fair CLR 79.9 77.4 92% 86 30.13 0.0
13 00:55 Calm 10.00 Fair CLR 79.5 77.2 88.2 78.1 93% 85 30.12 0.0
13 00:35 Calm 10.00 Fair CLR 80.2 77.2 90% 86 30.13 0.0
13 00:15 Calm 10.00 Partly Cloudy SCT039 80.1 76.6 89% 86 30.13 0.0
12 23:55 Calm 10.00 Partly Cloudy SCT039 79.7 75.4 87% 84 30.13 0.0
12 23:35 Calm 10.00 Fair CLR 78.4 75.6 91% 82 30.12 0.0
12 23:15 Calm 10.00 Fair CLR 79 75.6 89% 83 30.12 0.0
12 22:55 Calm 10.00 Fair CLR 80.8 76.1 86% 87 30.11 0.0
12 22:35 Calm 10.00 Fair CLR 80.6 75.7 85% 86 30.11 0.0
12 22:15 Calm 10.00 Fair CLR 80.8 75.4 84% 87 30.1 0.0
12 21:50 Calm 10.00 Fair CLR 82.4 75.2 79% 89 30.09 0.0
12 20:54 Calm 10.00 Fair CLR 86 73.4 66% 93 30.08 0.0
12 19:49 SW 5 10.00 Fair CLR 86 73.4 66% 93 30.07 0.0
12 18:50 Calm 10.00 Partly Cloudy SCT050 87.8 71.6 59% 94 30.07 0.0
12 17:54 Calm 10.00 Partly Cloudy SCT050 87.8 71.6 59% 94 30.06 0.0
12 16:45 Calm 10.00 Partly Cloudy SCT050 89.6 71.6 55% 96 30.07 0.0
12 15:45 Calm 10.00 Partly Cloudy SCT050 84.2 75.2 74% 92 30.08 0.0
12 14:45 Calm 10.00 Thunderstorm Rain SCT028 BKN036 78.8 75.2 89% 82 30.1 0.0
12 13:45 SE 14 G 20 10.00 Mostly Cloudy BKN030 84.2 75.2 74% 92 30.09 0.0
12 12:45 Calm 10.00 Mostly Cloudy BKN030 89.6 73.4 59% 98 30.1 0.0
12 11:50 Calm 10.00 Mostly Cloudy BKN030 87.8 75.2 66% 98 30.11 0.0
12 10:50 Calm 10.00 Mostly Cloudy BKN030 84.2 73.4 70% 91 30.11 0.0
12 09:50 Calm 10.00 Partly Cloudy SCT040 82.4 75.2 79% 89 30.1 0.0
12 08:45 Calm 10.00 Partly Cloudy SCT050 78.8 75.2 89% 82 30.1 0.0
12 07:45 Calm 10.00 Mostly Cloudy BKN100 78.8 75.2 89% 82 30.08 0.0
12 06:50 Calm 10.00 Mostly Cloudy BKN100 77 75.2 94% 78 30.06 0.0
12 05:35 Calm 10.00 Fair CLR 77 74.8 93% 78 30.03 0.0
12 05:15 Calm 10.00 Thunderstorm in Vicinity CLR 76.8 74.5 93% 78 30.03 0.0
12 04:55 Calm 10.00 Fair CLR 76.8 74.5 93% 78 30.02 0.0
12 04:35 Calm 10.00 Fair CLR 76.6 74.7 94% 77 30.03 0.0
12 04:15 Calm 10.00 Fair CLR 76.8 74.7 93% 78 30.02 0.0
12 03:55 Calm 10.00 Fair CLR 76.8 74.7 93% 78 30.02 0.0
12 03:35 Calm 10.00 Fair CLR 76.6 74.7 94% 77 30.02 0.0
12 03:15 Calm 10.00 Fair CLR 76.6 74.5 93% 77 30.02 0.0
12 02:55 Calm 10.00 Thunderstorm in Vicinity CLR 76.6 74.5 93% 77 30.02 0.0
12 02:35 Calm 10.00 Fair CLR 76.6 74.3 93% 77 30.01 0.0
12 02:15 NE 3 10.00 Fair CLR 76.8 74.5 93% 78 30.02 0.0
12 01:55 Calm 10.00 Fair CLR 76.6 74.5 93% 77 30.02 0.0
12 01:35 NE 3 10.00 Fair CLR 76.6 74.7 94% 77 30.03 0.0
12 01:15 N 3 10.00 Fair CLR 76.6 74.5 93% 77 30.03 0.0
12 00:55 Calm 10.00 Fair CLR 77 74.7 80.4 76.3 93% 78 30.03 0.0
12 00:35 Calm 10.00 Fair CLR 76.8 74.3 92% 78 30.03 0.0
12 00:15 Calm 10.00 Fair CLR 76.8 74.7 93% 78 30.03 0.0
11 23:55 Calm 10.00 Fair CLR 76.5 74.3 93% 77 30.03 0.0
11 23:35 Calm 10.00 Fair CLR 76.8 74.1 91% 78 30.02 0.0
11 23:15 Calm 10.00 Fair CLR 77.4 74.1 90% 79 30.03 0.0
11 22:55 N 3 10.00 Fair CLR 77.2 74.5 91% 79 30.03 0.0
11 22:35 Calm 10.00 Fair CLR 76.8 74.5 93% 78 30.02 0.0
11 22:15 NE 3 10.00 Fair CLR 77.5 74.5 90% 79 30.02 0.0
11 21:50 SW 3 10.00 Fair CLR 78.8 73.4 84% 82 30.02 0.0
11 20:45 SW 3 10.00 Fair CLR 78.8 73.4 84% 82 30.01 0.0
11 19:50 SW 3 10.00 Fair CLR 78.8 75.2 89% 82 30 0.0
11 18:50 SW 5 10.00 Partly Cloudy SCT080 80.6 73.4 79% 85 30 0.0
11 17:45 SW 8 10.00 Light Rain SCT050 82.4 73.4 74% 88 30 0.0
11 16:45 S 5 10.00 Partly Cloudy SCT029 SCT050 82.4 75.2 79% 89 30.02 0.0
11 15:45 S 10 10.00 Partly Cloudy SCT050 80.6 73.4 79% 85 30.01 0.0
11 14:45 SE 7 10.00 Thunderstorm SCT037 87.8 73.4 62% 96 30.02 0.0
11 13:47 E 8 10.00 Mostly Cloudy BKN040 89.6 73.4 59% 98 30.02 0.0
11 12:45 NE 6 10.00 Mostly Cloudy BKN035 BKN042 87.8 71.6 59% 94 30.04 0.0
11 11:45 SE 12 10.00 Mostly Cloudy BKN031 87.8 73.4 62% 96 30.05 0.0
11 10:52 E 7 10.00 Mostly Cloudy SCT024 BKN030 87.8 75.2 66% 98 30.04 0.0
11 09:45 E 7 10.00 Partly Cloudy SCT035 86 77 75% 97 30.04 0.0
11 08:47 NE 5 10.00 Fair CLR 82.4 77 84% 91 30.03 0.0
11 07:55 E 8 7.00 Fair CLR 80.6 78.8 94% 88 30.03 0.0
11 06:45 E 3 6.00 Fog/Mist SCT085 77 75.2 94% 78 30.02 0.0
11 05:35 E 3 10.00 Mostly Cloudy BKN085 76.6 75 95% 77 30.01 0.0
11 05:15 Calm 10.00 Partly Cloudy SCT085 76.8 75.2 95% 77 30 0.0
11 04:55 Calm 10.00 Partly Cloudy SCT085 77.4 75.4 94% 79 30 0.0
11 04:35 Calm 10.00 Partly Cloudy SCT090 77.5 75.6 94% 79 30 0.0
11 04:15 Calm 10.00 Mostly Cloudy BKN090 77.7 75.6 93% 80 29.99 0.0
11 03:55 N 3 10.00 Partly Cloudy SCT090 77.7 75.6 93% 80 29.99 0.0
11 03:35 Calm 10.00 Fair CLR 77.4 75.6 94% 79 29.99 0.0
11 03:15 E 3 10.00 Partly Cloudy SCT090 77.4 75.4 94% 79 29.98 0.0
11 02:55 Calm 10.00 Partly Cloudy SCT090 78.3 75.9 93% 81 29.99 0.0
11 02:35 N 3 10.00 Mostly Cloudy BKN090 78.4 76.1 93% 82 29.99 0.0
11 02:15 Calm 10.00 Mostly Cloudy BKN090 78.8 75.9 91% 83 29.99 0.0
11 01:55 Calm 10.00 Mostly Cloudy BKN090 78.8 75.9 91% 83 29.99 0.0
11 01:35 Calm 10.00 Partly Cloudy SCT090 78.1 76.1 94% 81 29.99 0.0
11 01:15 Calm 10.00 Partly Cloudy SCT090 78.3 75.9 93% 81 29.99 0.0
11 00:55 Calm 10.00 Partly Cloudy SCT090 79 76.5 85.6 78.4 92% 83 30 0.0
11 00:35 Calm 10.00 Fair CLR 78.4 76.3 93% 82 30 0.0
11 00:15 Calm 10.00 Fair CLR 78.4 76.1 93% 82 30 0.0
10 23:55 Calm 10.00 Fair CLR 79.2 76.6 92% 84 30 0.0
10 23:35 Calm 10.00 Fair CLR 78.8 76.3 92% 83 30 0.0
10 23:15 SE 3 10.00 Fair CLR 78.8 76.1 91% 83 30 0.0
10 22:55 S 3 10.00 Fair CLR 79.2 76.3 91% 83 30 0.0
10 22:35 Calm 10.00 Partly Cloudy SCT090 79.7 76.3 89% 85 30 0.0
10 22:15 SE 3 10.00 Overcast OVC090 80.2 76.3 88% 86 30 0.0
10 21:45 S 5 10.00 Partly Cloudy SCT090 82.4 75.2 79% 89 29.99 0.0
10 20:45 SE 5 10.00 Partly Cloudy SCT060 80.6 77 89% 87 29.99 0.0
10 19:45 SE 8 10.00 Partly Cloudy SCT060 82.4 75.2 79% 89 29.98 0.0
10 18:45 SE 8 10.00 Partly Cloudy SCT060 86 77 75% 97 29.98 0.0
10 17:45 E 6 10.00 Mostly Cloudy BKN040 91.4 71.6 52% 99 29.97 0.0
10 16:45 E 8 10.00 Mostly Cloudy BKN040 91.4 71.6 52% 99 29.97 0.0
10 15:50 E 7 10.00 Mostly Cloudy BKN040 91.4 71.6 52% 99 29.98 0.0
10 14:55 NE 8 10.00 Mostly Cloudy BKN035 89.6 71.6 55% 96 30.02 0.0
10 13:45 NE 8 10.00 Mostly Cloudy BKN035 89.6 71.6 55% 96 30 0.0
10 12:50 NE 5 10.00 Mostly Cloudy BKN034 89.6 73.4 59% 98 30.01 0.0
10 11:45 NE 8 10.00 Mostly Cloudy BKN034 87.8 73.4 62% 96 30.03 0.0
Date Time (cdt) Wind (mph) Vis. (mi.) Weather Sky Cond. Air Dwpt Max. Min. Relative Humidity Wind Chill (°F) Heat Index (°F) altimeter (in) sea level (mb) 1 hr 3 hr 6 hr
6 hour
Temperature (ºF) Pressure Precipitation (in)